Find Starlink 30091

NORAD ID: 57463 Int'l Des: 2023-107 Owner: SPXS Country: US Constellation: starlink operational
LEOCIRCULAR

Live-Position

3D-Globus wird geladen...

Über Starlink 30091

Beschreibung wird geladen...

Nächste Überflüge

Passes for default location (London). Set your location on the main map for personalized predictions.

Höhenverlauf

Loading altitude history...

Zweizeiliger Elementsatz

1 57463U 23107G 26109.97135441 -.00001038 00000-0 -28224-4 0 9996
2 57463 43.0038 102.7020 0001187 255.1768 104.8952 15.27573390151466
Epoch: 19. Apr. 2026 • Age: 16 hours

Aktueller Status

Höhe 485.0 km
Geschwindigkeit 7.63 km/s
Subsatellitenpunkt 33.39°N, 66.31°E
Startdatum 28. Juli 2023
Alter 2.7 years
Typ internet

Technische Details

Klassifizierung Payload
Masse 730.00 kg
Trockenmasse 700.00 kg
Gesamtmasse 730.00 kg
Länge 0.30 m
Durchmesser 4.10 m
Spannweite 29.00 m
Form Box + pan
Hersteller SPXS
Bus-Typ Starlink V2M
Phasenstatus In Orbit
Besitzer/Staat SPXS/US

Most Searched